CZ-2D DEB, 44606

Orbit data source: Space-Track

CZ-2D DEB, 44606 is space debris in SSO originally from a launch on Fri, 11 Nov 2016 UTC launched from the Jiuquan Satellite Launch Center, China (JSC). Debris objects in space refer to the collection of defunct objects orbiting the Earth. Examples of debris include non-operational satellites, rocket bodies, and fragments generated from explosions, collisions, or faulty payload assembly.

Loading next visibility...
CZ-2D DEB details
Identifier
44606, 2016-068F
Orbit
SSO
Last TLE update3 days ago
Origin
Flag of CNCASC (CN / PRC)
ManufacturerUnknown
MissionSpacecraft
Bus & MotorUnknown
MassUnknown
Launch date (UTC)
2016-11-11 (8 years ago)
Launch vehicleUnknown
Launch site
Jiuquan Satellite Launch Center, China (JSC)
Object type
Payload
Rocket body
Debris
Shape & HBRUnknown
Radar Cross SectionSmall (<0.1 m²)

Expand to show TLE details & history

TLE from 3 days ago
0 CZ-2D DEB
1 44606U 16068F   24358.07891227  .00001357  00000-0  88963-3 0  9992
2 44606  98.4309 111.5598 0224972 268.5483  88.9900 13.92024507411123
Epoch: 2024-12-23T01:53Z
Definitive object data (Epoch: 2024-12-23T01:53:38.02Z)
Latitude0.00004°
Longitude-8.95514°
Altitude925.23 km
Speed7.389 km/s
True Right ascension07h 26m 14s
True Declination0° 00' 00"
Sunlit
Object was in full shadow at TLE epoch
Visualization TLE readout
Latitude-17.94353°
Longitude-3.14586°
Altitude904.432 km
Speed7.411 km/s
Apparent Right ascension04h 52m 44s
Apparent Declination-56° 36' 44"
Sunlit
Object is in full shadow
Visualization observer readout
Local Sidereal Time10:14:22
Azimuth217.811° SW
Elevation-27.739°
Doppler factor1
Orbital elements
Apogee altitude1,082.885 km
Perigee altitude754.567 km
Semi-major axis7,296.863 km
Eccentricity0.0224972
Inclination98.4309°
RAAN111.5598°
Arg. of periapsis268.5483°
True anomaly91.568°
Mean anomaly88.99°
Eccentric anomaly90.27898°
Mean motion3.48208 °/min
BSTAR0.00088963
Orbital period103.39 mins
Loading maneuver chart data...
Loading historical data...
Loading historical data...
Loading historical data...
Loading historical data...
Loading historical data...
Loading historical data...
Loading historical data...

CZ-2D DEB Visibility forecast

Observer location: undefined°, undefined

Span
Click to sort rows by Start time (UTC) header in descending order
Start Az.
Max El. time (UTC)
Max El. Az.
Max El.
End time (UTC)
End Az.
11 mins2024-12-26 20:12:06.736Z23.978° NE2024-12-26 20:17:06.736Z81.295° E38.727°2024-12-26 20:23:06.736Z175.461° S
7 mins2024-12-26 21:56:06.736Z336.234° NNW2024-12-26 21:59:06.736Z300.063° NW22.892°2024-12-26 22:03:06.736Z252.149° W
6 mins2024-12-27 06:08:06.736Z87.472° E2024-12-27 06:11:06.736Z56.314° ENE16.756°2024-12-27 06:14:06.736Z26.706° NE
11 mins2024-12-27 07:47:06.736Z167.858° S2024-12-27 07:52:06.736Z240.087° WSW44.892°2024-12-27 07:58:06.736Z345.59° N
|